Muncie, IN

8:29 AM EDT on July 28, 2017 (GMT -0400)
Delaware County-Johnson

Weather History for KMIE - November, 2011

Change the Weather History Date:

Sunday, November 27, 2011

  Actual Average Record
Temperature  
Mean Temperature 49 °F 38 °F  
Max Temperature 60 °F 45 °F 65 °F (1990)
Min Temperature 38 °F 30 °F 12 °F (1991)
Degree Days  
Heating Degree Days 16 28  
Month to date heating degree days 452 586  
Since 1 July heating degree days 964 1050  
Cooling Degree Days 0 0  
Month to date cooling degree days 0 0  
Year to date cooling degree days 1068 955  
Moisture  
Dew Point 44 °F    
Average Humidity 74    
Maximum Humidity 93    
Minimum Humidity 55    
Precipitation  
Precipitation 0.53 in 0.12 in 1.25 in (1966)
Month to date precipitation 5.13 3.12  
Year to date precipitation 42.73 36.91  
Sea Level Pressure  
Sea Level Pressure 29.88 in    
Wind  
Wind Speed 11 mph (West)    
Max Wind Speed 23 mph    
Max Gust Speed 32 mph    
Visibility 9 miles    
Events Rain    
T = Trace of Precipitation, MM = Missing Value Source: NWS Daily Summary

Daily Weather History Graph

Daily Weather History Graph

Search for Another Location

Airport or City:

Trip Planner

Search our weather history database for the weather conditions in past years. The results will help you decide how hot, cold, wet, or windy it might be!

Date:

Astronomy

Nov. 27, 2011 Rise Set
Actual Time 7:40 AM EST 5:17 PM EST
Civil Twilight 7:10 AM EST 5:47 PM EST
Nautical Twilight 6:37 AM EST 6:21 PM EST
Astronomical Twilight 6:04 AM EST 6:53 PM EST
Moon 10:04 AM EST (11/27) 7:55 PM EST (11/27)
Length of Visible Light 10h 36m
Length of Day
9h 37m
Waxing Crescent, 8% of the Moon is Illuminated
Nov 27
Waxing Crescent
Dec 2
First Quarter
Dec 10
Full
Dec 17
Last Quarter
Dec 24
New

Hourly Weather History & Observations

Time (EST) Temp. Windchill Dew Point Humidity Pressure Visibility Wind Dir Wind Speed Gust Speed Precip Events Conditions
12:53 AM 59.0 °F - 46.9 °F 64% 29.82 in 10.0 mi South 12.7 mph 21.9 mph 0.00 in   Overcast
1:53 AM 57.9 °F - 50.0 °F 75% 29.81 in 10.0 mi SSW 15.0 mph 27.6 mph 0.00 in Rain Light Rain
2:53 AM 57.0 °F - 50.0 °F 77% 29.80 in 10.0 mi SSW 17.3 mph 29.9 mph 0.00 in   Overcast
3:37 AM 55.4 °F - 51.8 °F 88% 29.81 in 10.0 mi SSW 15.0 mph 26.5 mph 0.00 in Rain Light Rain
3:53 AM 55.9 °F - 52.0 °F 87% 29.79 in 10.0 mi SSW 13.8 mph 24.2 mph 0.00 in Rain Light Rain
4:09 AM 55.4 °F - 51.8 °F 88% 29.79 in 10.0 mi South 11.5 mph 18.4 mph 0.01 in Rain Light Rain
4:18 AM 55.4 °F - 51.8 °F 88% 29.79 in 10.0 mi SSW 12.7 mph 20.7 mph 0.01 in Rain Light Rain
4:53 AM 55.0 °F - 52.0 °F 89% 29.78 in 9.0 mi SSW 12.7 mph - 0.03 in Rain Light Rain
5:05 AM 55.4 °F - 53.6 °F 94% 29.79 in 10.0 mi SSW 10.4 mph - 0.01 in Rain Light Rain
5:23 AM 55.4 °F - 53.6 °F 94% 29.79 in 10.0 mi SSW 11.5 mph 20.7 mph 0.02 in Rain Light Rain
5:53 AM 55.0 °F - 53.1 °F 93% 29.78 in 9.0 mi South 9.2 mph - 0.04 in Rain Light Rain
6:53 AM 55.0 °F - 53.1 °F 93% 29.77 in 10.0 mi SSW 8.1 mph - 0.04 in Rain Light Rain
8:16 AM 46.4 °F 42.4 °F 44.6 °F 93% 29.81 in 7.0 mi WNW 8.1 mph - 0.00 in Rain Light Rain
8:53 AM 46.0 °F 41.4 °F 44.1 °F 93% 29.83 in 5.0 mi WNW 9.2 mph - 0.03 in Rain Light Rain
9:21 AM 44.6 °F 39.7 °F 42.8 °F 93% 29.84 in 5.0 mi WNW 9.2 mph - 0.03 in Rain Light Rain
10:53 AM 44.1 °F 40.1 °F 42.1 °F 93% 29.85 in 6.0 mi WNW 6.9 mph - 0.03 in Rain Light Rain
11:53 AM 45.0 °F 39.3 °F 42.1 °F 90% 29.86 in 10.0 mi West 11.5 mph - 0.04 in Rain Light Rain
12:53 PM 45.0 °F 39.7 °F 42.1 °F 90% 29.85 in 9.0 mi WNW 10.4 mph - 0.02 in Rain Light Rain
1:53 PM 45.0 °F 40.1 °F 42.1 °F 90% 29.85 in 10.0 mi WNW 9.2 mph - 0.03 in Rain Light Rain
2:02 PM 44.6 °F 40.2 °F 42.8 °F 93% 29.86 in 9.0 mi WNW 8.1 mph - 0.01 in Rain Light Rain
2:53 PM 45.0 °F 40.1 °F 42.1 °F 90% 29.86 in 10.0 mi WNW 9.2 mph - 0.03 in Rain Light Rain
3:53 PM 45.0 °F 39.7 °F 42.1 °F 90% 29.89 in 10.0 mi WNW 10.4 mph - 0.02 in Rain Light Rain
4:53 PM 44.1 °F 39.0 °F 41.0 °F 89% 29.92 in 10.0 mi WNW 9.2 mph - 0.01 in Rain Light Rain
5:53 PM 43.0 °F 37.7 °F 39.9 °F 89% 29.92 in 10.0 mi NW 9.2 mph - 0.00 in   Overcast
6:53 PM 42.1 °F 36.6 °F 39.9 °F 92% 29.95 in 10.0 mi NW 9.2 mph - 0.00 in Rain Light Rain
7:12 PM 42.8 °F 37.0 °F 39.2 °F 87% 29.96 in 10.0 mi NW 10.4 mph - 0.01 in Rain Light Rain
7:53 PM 42.1 °F 35.7 °F 39.0 °F 89% 29.97 in 10.0 mi NNW 11.5 mph - 0.01 in Rain Light Rain
8:53 PM 41.0 °F 33.9 °F 39.0 °F 93% 29.99 in 6.0 mi NNW 12.7 mph - 0.04 in Rain Light Rain
9:53 PM 39.9 °F 33.9 °F 37.9 °F 93% 30.02 in 4.0 mi NNW 9.2 mph - 0.01 in Rain Light Rain
10:37 PM 39.2 °F 32.0 °F 37.4 °F 93% 30.01 in 10.0 mi NNE 11.5 mph - 0.02 in Rain Light Rain
10:53 PM 39.9 °F 32.9 °F 37.0 °F 89% 30.02 in 10.0 mi North 11.5 mph - 0.03 in Rain Light Rain
11:02 PM 39.2 °F 32.0 °F 37.4 °F 93% 30.01 in 10.0 mi North 11.5 mph - 0.01 in Rain Light Rain
11:18 PM 39.2 °F 31.6 °F 37.4 °F 93% 30.02 in 10.0 mi North 12.7 mph - 0.02 in Rain Light Rain
11:53 PM 37.9 °F 30.0 °F 36.0 °F 93% 30.01 in 10.0 mi North 12.7 mph - 0.04 in Rain Light Rain